Location: Newark
(4.6381°N, 74.0644°W)
Time: 08:11:03
(UTC+00:00)

N. Korean satellite - Visible Passes

Search period start: 14 October 2019 00:00
Search period end: 24 October 2019 00:00
Orbit: 455 x 508 km, 97.2° (Epoch: 13 October)

Date Brightness Start Highest point End Pass type
(mag) Time Alt. Az. Time Alt. Az. Time Alt. Az.
15 Oct 7.9 10:15:48 10° NNE 10:19:19 46° E 10:22:52 10° S visible
16 Oct 9.9 09:51:31 10° NE 09:54:06 18° E 09:56:41 10° SE visible
16 Oct 10.2 23:15:30 10° SW 23:17:10 13° W 23:18:51 10° WNW visible
19 Oct 8.6 10:08:12 10° NE 10:11:34 34° E 10:14:58 10° SSE visible
20 Oct 10.2 09:44:20 10° ENE 09:46:20 14° E 09:48:21 10° SE visible
20 Oct 9.9 23:07:02 10° SW 23:09:22 17° W 23:11:41 10° WNW visible
23 Oct 9.2 10:00:38 10° NE 10:03:47 26° E 10:06:56 10° SSE visible
